Location: Ladd Observatory
(41.8387°N, 71.3996°W)
Time: 07:03:35
(UTC-04:00)

ISS - Visible Passes

Search period start: 25 May 2018 00:00
Search period end: 04 June 2018 00:00
Orbit: 402 x 407 km, 51.6° (Epoch: 25 May)

Date Brightness Start Highest point End Pass type
(mag) Time Alt. Az. Time Alt. Az. Time Alt. Az.
25 May -1.1 00:43:31 10° NW 00:46:02 20° NNE 00:46:03 20° NNE visible
25 May -0.8 22:13:56 10° NW 22:16:09 17° N 22:18:22 10° NNE visible
25 May -0.9 23:51:22 10° NNW 23:53:35 17° N 23:55:04 13° NE visible
26 May -0.8 01:27:30 10° NW 01:27:41 11° NW 01:27:41 11° NW visible
26 May -1.0 21:21:10 10° WNW 21:23:41 20° NNW 21:26:14 10° NE visible
26 May -0.7 22:59:06 10° NNW 23:01:05 15° N 23:03:04 10° NE visible
27 May -1.2 00:35:24 10° NW 00:36:53 21° NNW 00:36:53 21° NNW visible
27 May -0.8 22:06:36 10° NW 22:08:34 15° N 22:10:32 10° NE visible
27 May -1.5 23:43:19 10° NW 23:45:56 22° NNE 23:46:10 22° NNE visible
28 May -0.9 21:13:55 10° NW 21:16:03 16° N 21:18:10 10° NNE visible
28 May -1.1 22:51:10 10° NNW 22:53:28 17° NNE 22:55:31 11° NE visible
29 May -1.1 00:27:15 10° NW 00:28:08 17° NW 00:28:08 17° NW visible
29 May -0.9 21:58:53 10° NNW 22:00:57 15° N 22:03:00 10° NE visible
29 May -2.0 23:35:06 10° NW 23:37:31 31° N 23:37:31 31° N visible
30 May -0.9 21:06:26 10° NW 21:08:23 15° N 21:10:20 10° NE visible
30 May -1.8 22:42:58 10° NW 22:45:43 24° NNE 22:46:55 19° NE visible
31 May -0.9 00:19:11 10° WNW 00:19:32 12° WNW 00:19:32 12° WNW visible
31 May -1.3 21:50:48 10° NNW 21:53:14 19° NNE 21:55:39 10° ENE visible
31 May -2.3 23:26:53 10° NW 23:28:58 35° NW 23:28:58 35° NW visible
01 Jun -1.1 20:58:33 10° NNW 21:00:41 16° N 21:02:48 10° NE visible
01 Jun -2.8 22:34:41 10° NW 22:37:49 40° NNE 22:38:25 36° ENE visible
02 Jun -2.0 21:42:31 10° NW 21:45:23 27° NNE 21:47:53 12° E visible
02 Jun -2.0 23:18:49 10° WNW 23:20:31 26° WNW 23:20:31 26° WNW visible
03 Jun -1.6 20:50:20 10° NW 20:52:53 20° NNE 20:55:24 10° ENE visible
03 Jun -4.0 22:26:27 10° NW 22:29:43 86° NNE 22:30:00 72° ESE visible
